www.pogodaiklimat.ru

Погода и климат >> Архив погоды >> Эстония >> Vilsandi


ПОГОДА в Vilsandi

  • Прогноз погоды в Vilsandi
  • Монитор погоды в Vilsandi
  • Климат города

АРХИВ ПОГОДЫ в Vilsandi

Время (UTC), дата Ветер
(напр.,м/с)
 
Видим.   Явления Облачность Т
(С)
Тd
(С)
f
(%)
Тe
(С)
Тes
(С)
Комфортность P
(гПа)
Po
(гПа)
Тmin
(С)
Tmax
(С)
R
(мм)
R24
(мм)
S
(см)
16 16.06 20 км 4/4 120 м
[]
+15.3 +12.9 86 1017.8 1017.1 +13.0 +15.5
17 16.06 С 2 20 км ясно +15.1 +12.6 85 +15 +17 1017.5 1016.8 +13.0 +15.7
18 16.06 С 2 20 км ясно +14.9 +13.2 90 +15 +15 1017.4 1016.7 +13.4 +15.7
19 16.06 С 2 19 км ясно +14.5 +12.9 90 +14 +14 1017.3 1016.6 +13.4 +15.7
20 16.06 СВ 2 17 км ясно +13.6 +12.3 92 +13 +13 1017.6 1016.9 +13.4 +15.7
21 16.06 С 2 13 км ясно +13.2 +12.4 95 +12 +12 1017.5 1016.8 +12.3 +15.7
22 16.06 СВ 2 3100 м н/о +11.7 +11.5 99 +10 +10 1017.4 1016.7
23 16.06 С 3 5000 м н/о +13.4 +13.0 97 +12 +12 1017.5 1016.8
00 17.06 н/о +12.6 1017.2 1016.6
01 17.06 СВ 3 8000 м н/о +13.2 +12.7 97 +12 +12 1017.1 1016.4
02 17.06 СВ 2 12 км н/о +13.4 +13.0 97 +13 +13 1017.0 1016.3
03 17.06 СВ 2 20 км дымка 9/3 300 м
[St Ac trans Ci fib]
+13.6 +12.8 95 +13 +13 1016.8 1016.2 +10.6 +15.7
04 17.06 СВ 3 20 км 1/0 2000 м
[]
+14.9 +13.1 89 +14 +15 1016.4 1015.7 +10.6 +15.7
05 17.06 СВ 3 20 км 9/9 2000 м
[]
+16.2 +12.3 78 +16 +16 1016.5 1015.8 +10.6 +16.3
06 17.06 В 3 20 км 10/4 1000 м
[Sc Ac trans Ci]
+16.8 +10.8 68 +17 +18 1016.4 1015.7 +10.6 +17.6
07 17.06 СВ 2 20 км 9/0 2000 м
[]
+18.5 +12.8 69 +20 +24 1016.2 1015.5 +10.6 +18.5
08 17.06 С 3 20 км 1/0
[]
+19.2 +13.8 71 +21 +30 комфорт 1015.9 1015.2 +10.6 +19.9
09 17.06 20 км ясно +20.3 +14.3 68 1015.6 1014.9 +10.6 +20.3
10 17.06 20 км н/о +20.6 +14.5 68 1015.3 1014.6
11 17.06 З 2 20 км н/о +18.7 +14.5 77 +20 +20 1015.1 1014.5
12 17.06 СЗ 3 20 км н/о +18.1 +14.3 78 +18 +18 1014.8 1014.1
13 17.06 СЗ 2 20 км н/о +19.4 +14.2 72 +22 +22 комфорт 1014.3 1013.6
14 17.06 СЗ 2 20 км н/о +18.6 +14.7 78 +20 +20 1014.2 1013.5
15 17.06 Ю 5 20 км 9/1 1500 м
[]
+19.2 +13.5 70 +20 +22 1014.1 1013.4 +13.6 +21.8
16 17.06 Ю 3 20 км н/о +19.5 +13.8 70 +21 +21 комфорт 1014.0 1013.3
17 17.06 ЮЗ 5 20 км н/о +19.0 +14.1 73 +20 +20 1013.8 1013.1
18 17.06 ЮЗ 3 20 км н/о +17.4 +15.1 86 +17 +17 1013.6 1013.0 +16.8 +21.8
19 17.06 н/о
20 17.06 Ю 4 10 км н/о +16.2 +15.6 96 +15 +15 1013.5 1012.8
21 17.06 Ю 3 12 км ясно +16.2 +15.6 96 +16 +16 1013.4 1012.7 +15.9 +21.8
22 17.06 Ю 4 20 км н/о +16.4 +14.8 90 +16 +16 1013.2 1012.5
23 17.06 Ю 5 20 км н/о +16.6 +13.1 80 +16 +16 1012.9 1012.2
00 18.06 Ю 5 20 км н/о +16.6 +13.7 83 +16 +16 1012.9 1012.2 0.1
01 18.06 Ю 4 20 км н/о +16.7 +14.1 85 +16 +16 1012.6 1012.0
02 18.06 ЮЗ 4 19 км н/о +16.2 +15.0 93 +15 +15 1012.8 1012.1
03 18.06 З 3
{8}
10 км {ливн. осадки} 10/8 1000 м
[Cb calv Ac und]
+16.2 +15.2 94 +16 +16 1013.1 1012.4 +15.9 +21.1
04 18.06 СЗ 4 20 км н/о +16.3 +14.3 88 +16 +16 1013.2 1012.5
05 18.06 СЗ 4 20 км {дымка} 5/0 2000 м
[]
+15.8 +11.7 77 +15 +17 1013.6 1012.9 +15.8 +19.0
06 18.06 СЗ 3 20 км {ливн. осадки} 10/0 1440 м
[Ac und]
+16.6 +11.6 72 +16 +18 1013.9 1013.2 +15.8 +17.4
07 18.06 СЗ 2 20 км 9/8 1080 м
[]
+16.5 +10.8 69 +17 +18 1014.3 1013.6 +15.8 +17.2
08 18.06 ЮЗ 3 20 км 9/8 1230 м
[]
+16.7 +11.8 73 +16 +18 1014.8 1014.1 +15.8 +17.3
09 18.06 ЮЗ 3 20 км 9/0
[Ac trans]
+17.5 +12.4 72 +18 +23 1014.8 1014.1 +15.8 +17.7
10 18.06 ЮЗ 3 20 км 9/0
[]
+18.1 +12.3 69 +18 +25 1014.9 1014.2 +15.8 +18.1
11 18.06 Ю 4 20 км 1/1
[]
+18.7 +12.6 68 +19 +28 1015.2 1014.5 +15.8 +19.3
12 18.06 Ю 5-8
{8}
20 км 10/0
[Ac trans Ci]
+19.0 +13.0 68 +20 +24 1015.1 1014.4 +15.8 +20.0
13 18.06 ЮЗ 5 20 км н/о +18.4 +13.3 72 +19 +19 1014.8 1014.1
14 18.06 ЮЗ 6 20 км н/о +18.7 +13.7 73 +19 +19 1014.7 1014.0
15 18.06 З 5-8
{10}
20 км 10/0 1470 м
[Ac und]
+16.5 +12.2 76 +16 +17 1014.8 1014.1 +15.8 +20.0
16 18.06 ЮЗ 3
{10}
20 км 8/8
[]
+16.9 +11.9 72 +17 +17 1014.4 1013.7 +15.8 +20.0
17 18.06 Ю 5
{10}
20 км 5/5 1110 м
[]
+16.9 +12.5 75 +16 +17 1013.9 1013.3 +15.8 +20.0
18 18.06 ЮЗ 6-9
{9}
20 км ясно +16.1 +13.1 82 +15 +15 1013.8 1013.1 +16.0 +20.0
19 18.06 ЮЗ 7-9
{10}
20 км ясно +15.7 +13.5 87 +14 +14 1013.7 1013.0 +15.7 +20.0
20 18.06 ЮЗ 7-9
{10}
20 км ясно +15.4 +13.6 89 +14 +14 1013.6 1013.0 +15.4 +20.0
21 18.06 ЮЗ 8-11
{11}
16 км 3/1 1000 м
[Sc Ac trans Ci fib]
+15.4 +14.1 92 +13 +13 1013.6 1012.9 +15.3 +20.0
22 18.06 ЮЗ 8 17 км н/о +15.5 +14.3 93 +14 +14 1012.9 1012.2
23 18.06 ЮЗ 9 20 км н/о +15.5 +14.1 91 +13 +13 1012.3 1011.6
00 19.06 ЮЗ 8 19 км н/о +15.4 +14.2 93 +13 +13 1011.8 1011.1
01 19.06 ЮЗ 8 16 км н/о +15.5 +14.4 93 +14 +14 1011.3 1010.6
02 19.06 ЮЗ 8 12 км н/о +15.6 +14.6 94 +14 +14 1010.6 1009.9
03 19.06 ЮЗ 8-12
{12}
14 км 10/6 1500 м
[Sc Ac und]
+15.7 +14.6 93 +14 +14 1010.3 1009.6 +15.3 +17.4
04 19.06 ЮЗ 9 15 км н/о +15.8 +14.6 93 +14 +14 1009.7 1009.0
05 19.06 ЮЗ 9-13
{13}
16 км 10/10 1440 м
[]
+16.0 +14.8 93 +14 +14 1009.0 1008.3 +15.3 +16.9
06 19.06 ЮЗ 10-14
{14}
13 км 10/9 1230 м
[Sc]
+16.1 +14.8 92 +14 +14 1008.0 1007.3 +15.3 +16.2
07 19.06 ЮЗ 11 12 км н/о +16.1 +14.8 92 +14 +14 1008.0 1007.3
08 19.06 н/о
09 19.06 ЮЗ 10-13
{15}
16 км 10/10 1050 м
[Cb calv]
+15.9 +14.4 91 +14 +14 1007.0 1006.3 +15.4 +16.4
10 19.06 З 9 12 км н/о +14.5 +13.3 93 +12 +12 1007.2 1006.5 2
11 19.06 З 10 20 км н/о +15.7 +12.0 79 +14 +14 1007.4 1006.7
12 19.06 ЮЗ 8 20 км н/о +16.8 +10.9 68 +15 +15 1007.8 1007.1
13 19.06 ЮЗ 8 20 км н/о +17.1 +11.0 67 +16 +16 1007.6 1006.9
14 19.06 ЮЗ 9 20 км н/о +16.9 +11.1 69 +15 +15 1007.8 1007.2
15 19.06 ЮЗ 8-13
{14}
20 км ясно +16.9 +11.6 71 +16 +17 1008.0 1007.3 +14.1 +17.6
16 19.06 З 9 20 км н/о +16.6 +11.7 73 +15 +15 1008.1 1007.4
17 19.06 ЮЗ 7 20 км н/о +16.2 +11.9 76 +15 +15 1008.4 1007.8
18 19.06 З 7 20 км н/о +16.1 +11.7 75 +15 +15 1008.5 1007.9 +14.1 +17.6
19 19.06 н/о
20 19.06 З 8 20 км н/о +15.9 +10.3 69 +14 +14 1009.0 1008.3
21 19.06 З 7-10
{12}
20 км ясно +15.5 +10.8 74 +14 +14 1009.1 1008.4 +14.1 +17.6
22 19.06 З 8 20 км н/о +15.2 +10.5 74 +13 +13 1009.7 1009.1
23 19.06 З 8 20 км н/о +15.0 +10.1 72 +13 +13 1009.7 1009.0
00 20.06 н/о
01 20.06 З 9 20 км н/о +14.3 +9.8 74 +12 +12 1010.0 1009.3
02 20.06 З 10 20 км н/о +14.1 +10.2 77 +11 +11 1010.1 1009.4
03 20.06 З 9-13
{14}
20 км ясно +14.1 +10.3 78 +11 +12 1010.4 1009.7 +14.0 +17.1
04 20.06 З 9 20 км н/о +14.2 +10.5 78 +12 +12 1011.0 1010.3
05 20.06 З 8-11
{14}
20 км ясно +14.2 +10.3 77 +12 +12 1011.4 1010.7 +14.0 +16.5
06 20.06 З 8-12
{13}
20 км 3/1 1000 м
[Cu med, cong Ci fib]
+14.3 +10.2 76 +12 +13 1011.6 1010.9 +14.0 +16.2
07 20.06 З 8-11
{13}
20 км ясно +14.6 +10.4 76 +12 +14 1012.1 1011.4 +14.0 +16.0
08 20.06 З 8-11
{13}
20 км ясно +15.0 +10.7 75 +13 +15 1012.6 1011.9 +14.0 +16.0
09 20.06 З 8-11
{12}
20 км ясно +15.4 +10.5 73 +13 +16 1013.3 1012.6 +14.0 +15.7
10 20.06 З 8-10
{12}
20 км ясно +15.5 +10.2 71 +14 +16 1013.6 1013.0 +14.0 +15.9
11 20.06 З 8-11
{13}
20 км ясно +15.2 +10.4 73 +13 +16 1013.8 1013.1 +14.0 +15.9
12 20.06 З 7-10
{13}
20 км 8/3 1000 м
[Cu Sc Ac trans Ci fib]
+15.0 +10.1 72 +13 +15 1013.8 1013.1 +14.0 +16.2
13 20.06 ЮЗ 7-10
{13}
20 км 9/9
[]
+14.5 +10.2 75 +12 +13 1013.6 1012.9 +14.0 +16.2
14 20.06 ЮЗ 6-9
{11}
20 км 4/0
[]
+15.0 +10.7 75 +13 +16 1013.4 1012.8 +14.0 +16.2
15 20.06 ЮЗ 6-9
{10}
20 км 10/3 1000 м
[Sc Ac trans Ci]
+16.9 +11.5 70 +16 +17 1012.7 1012.0 +14.0 +16.9
16 20.06 ЮЗ 7-9
{9}
20 км 10/10 2000 м
[]
+15.2 +11.9 81 +13 +13 1012.4 1011.7 +14.1 +17.1
17 20.06 ЮЗ 7-11
{11}
20 км 10/10 1500 м
[]
+14.7 +12.3 86 +13 +13 1011.5 1010.8 +14.1 +17.1
18 20.06 ЮЗ 8-11
{13}
20 км в посл. час дождь 10/9 1380 м
[Sc]
+14.8 +12.8 88 +13 +13 1010.4 1009.7 +14.3 +17.1
19 20.06 Ю 6-9
{13}
14 км слаб. дождь 10/10 1110 м
[]
+14.5 +13.3 93 +13 +13 1009.2 1008.5 +14.3 +17.1
20 20.06 Ю 6-10
{13}
н/о дождь 10/10 270 м
[]
+14.6 +13.9 96 +13 +13 1008.1 1007.4 +14.3 +17.1 2
21 20.06 ЮЗ 10-15
{15}
6000 м дождь 10/10 240 м
[Frnb Ns]
+15.0 +14.4 96 +12 +12 1007.0 1006.3 +14.3 +17.1 4
22 20.06 ЮЗ 9-12
{15}
10 км слаб. ливневой дождь 10/9 420 м
[]
+15.1 +14.4 96 +13 +13 1006.9 1006.2 +14.3 +17.1 5
23 20.06 З 7-10
{15}
10 км слаб. ливневой дождь 9/5 300 м
[]
+15.1 +14.4 96 +13 +13 1006.7 1006.0 +14.3 +17.1 4
00 21.06 З 4 7000 м н/о +14.5 +14.0 97 +13 +13 1007.1 1006.4 0.1
01 21.06 З 4 13 км н/о +14.3 +13.6 96 +13 +13 1006.9 1006.2
02 21.06 ЮЗ 4 12 км н/о +14.5 +13.6 94 +13 +13 1006.5 1005.8
03 21.06 ЮЗ 4 20 км в посл. час дождь 10/8 1500 м
[Sc Ac und]
+14.3 +13.4 94 +13 +13 1006.1 1005.5 +14.2 +17.1 0.2
04 21.06 ЮЗ 3 20 км н/о +14.0 +13.3 96 +13 +13 1005.8 1005.1
05 21.06 Ю 3 20 км слаб. ливневой дождь 10/10 90 м
[]
+14.3 +13.9 97 +13 +13 1004.9 1004.2 +13.9 +15.3 0.6
06 21.06 Ю 5 3200 м слабый дождь 10// 50 м
[Frnb As op]
+15.3 +15.0 98 +14 +14 1004.2 1003.5 +13.9 +15.4
07 21.06 ЮЗ 6 5000 м н/о +15.9 +15.5 97 +14 +14 1003.4 1002.7 0.3
08 21.06 н/о
09 21.06 Ю 6-9
{10}
11 км дымка {дождь} 10/3 150 м
[Sc Ac As]
+17.0 +15.6 91 +16 +17 1003.3 1002.6 +13.9 +17.4 0.3
10 21.06 ЮЗ 7 11 км н/о +16.4 +15.0 91 +15 +15 1003.1 1002.4
11 21.06 Ю 6 11 км н/о +16.8 +15.3 91 +16 +16 1002.7 1002.0
12 21.06 Ю 8 8000 м слабый дождь 10// 100 м
[Frnb As op]
+15.9 +15.1 95 +14 +15 1002.2 1001.6
13 21.06 ЮЗ 7 8000 м н/о +15.6 +15.0 96 +14 +14 1002.1 1001.5 1
14 21.06 ЮЗ 7 11 км н/о +15.5 +14.7 95 +14 +14 1001.8 1001.1 0.3
15 21.06 ЮЗ 5-9
{14}
20 км в посл. час дождь 10/8 1350 м
[Sc Ac As]
+14.8 +12.5 86 +13 +13 1000.6 999.9 +13.9 +17.8 2
16 21.06 ЮЗ 5 20 км н/о +15.2 +13.1 87 +14 +14 1000.0 999.3
17 21.06 ЮЗ 7 18 км н/о +14.5 +13.2 92 +12 +12 999.7 999.0
18 21.06 ЮЗ 7 20 км слабый дождь 10// 1500 м
[Frnb As op]
+13.5 +11.6 88 +11 +11 999.5 998.8 +13.5 +17.8 1
19 21.06 Ю 4 13 км н/о +12.7 +11.6 93 +11 +11 998.1 997.5 3
20 21.06 ЮЗ 7 20 км н/о +12.9 +11.6 92 +10 +10 997.7 997.0 1
21 21.06 ЮЗ 7-11
{13}
20 км слабый дождь 10/8 180 м
[Sc Ac As]
+12.5 +11.1 91 +10 +10 996.9 996.2 +11.8 +17.8 5
22 21.06 ЮЗ 11 20 км н/о +13.5 +11.3 87 +10 +10 996.2 995.5
23 21.06 ЮЗ 7 20 км н/о +13.6 +11.1 85 +11 +11 996.0 995.3
00 22.06 н/о +12.2 +10.3 88 +23 +23 комфорт 995.7 994.9
01 22.06 ЮЗ 9 20 км н/о +12.9 +9.7 81 +10 +10 995.3 994.6
02 22.06 ЮЗ 13 20 км н/о +12.9 +9.7 81 +9 +9 995.0 994.3
03 22.06 ЮЗ 9-15
{18}
20 км слабый дождь 9/9 450 м
[Sc]
+12.3 +9.7 84 +9 +9 995.2 994.5 +11.8 +15.4
04 22.06 ЮЗ 13 20 км н/о +12.1 +9.5 84 +8 +8 995.0 994.3 0.3
05 22.06 ЮЗ 9-13
{18}
20 км в посл. час дождь {ливн. осадки} 9/9 420 м
[]
+12.0 +9.0 82 +9 +9 995.1 994.4 +10.9 +14.5 0.3
06 22.06 ЮЗ 14-19
{20}
20 км в посл. час ливневой дождь 9/8 400 м
[Cb calv Ac trans]
+12.4 +9.7 84 +8 +8 994.9 994.3 +10.6 +13.7 0.6
07 22.06 ЮЗ 14-21
{21}
20 км в посл. час дождь {ливн. осадки} 9/9 630 м
[]
+12.5 +9.5 82 +8 +8 994.9 994.3 +10.6 +13.7 0.3
08 22.06 З 12-17
{21}
20 км слаб. ливневой дождь 10/10 540 м
[]
+12.5 +9.7 83 +9 +9 995.4 994.7 +10.6 +13.7 0.3
09 22.06 ЮЗ 12-19
{21}
20 км {ливн. осадки} 10/10 360 м
[Cb calv]
+12.0 +9.3 84 +8 +8 996.2 995.5 +10.6 +13.7
10 22.06 ЮЗ 11-19
{20}
3900 м ливневой дождь 10/10 240 м
[]
+11.4 +10.5 94 +7 +7 996.3 995.6 +10.6 +13.7 0.3
11 22.06 СЗ 12-17
{20}
20 км слаб. ливневой дождь 10/10 480 м
[]
+11.9 +9.3 84 +8 +8 998.8 998.1 +10.6 +13.7 0.6
12 22.06 СЗ 9-13
{20}
20 км слабый дождь {ливн. осадки} 10/9 420 м
[Sc Ac As]
+12.1 +9.4 84 +9 +9 1001.0 1000.3 +10.6 +13.2 0.6
13 22.06 З 9-13
{20}
20 км слаб. ливневой дождь 10/10 1020 м
[]
+11.3 +9.0 86 +7 +7 1002.7 1002.0 +10.6 +13.2 0.3
14 22.06 З 9-12
{16}
20 км слаб. дождь {ливн. осадки} 10/10 1300 м
[]
+11.6 +8.8 83 +8 +8 1004.0 1003.3 +10.6 +13.2 0.2
15 22.06 З 7-9
{15}
20 км слабый дождь 10/10 660 м
[Frnb Ns]
+11.9 +9.7 86 +9 +9 1005.3 1004.6 +10.6 +13.2 0.3
16 22.06 З 4
{15}
20 км в посл. час дождь 10/10 1320 м
[]
+12.9 +9.0 77 +11 +11 1006.3 1005.6 +10.6 +13.2 0.3
17 22.06 ЮЗ 4
{13}
20 км {дождь} 10/10 1050 м
[]
+13.2 +9.9 80 +12 +12 1006.6 1005.9 +10.6 +13.2 0.1
18 22.06 ЮЗ 7-9
{11}
20 км {дождь} 4/1 1000 м
[Sc Ac trans]
+13.5 +9.8 78 +11 +11 1006.4 1005.7 +10.8 +14.0
19 22.06 ЮЗ 8-12
{12}
20 км ясно +13.4 +11.0 85 +11 +11 1006.5 1005.8 +10.8 +14.0
20 22.06 ЮЗ 8-11
{12}
20 км 3/3 1500 м
[]
+13.4 +11.1 86 +11 +11 1006.7 1006.0 +10.8 +14.0
21 22.06 ЮЗ 8-10
{12}
20 км 4/4 1500 м
[]
+13.5 +9.8 78 +11 +11 1007.0 1006.3 +10.8 +14.0
22 22.06 ЮЗ 7-10
{13}
20 км слаб. дождь 9/9 1260 м
[]
+12.1 +8.7 80 +9 +9 1007.1 1006.4 +10.8 +14.0 0.5
23 22.06 ЮЗ 6-9
{13}
20 км {дождь} ясно +12.7 +9.2 79 +10 +10 1007.3 1006.6 +10.8 +14.0 0.6
00 23.06 н/о +13.0 +10.0 82 1007.5 1006.8
01 23.06 ЮЗ 6 20 км н/о +12.9 +9.9 82 +10 +10 1007.6 1006.9
02 23.06 ЮЗ 6 20 км н/о +12.9 +9.8 81 +10 +10 1007.9 1007.2
03 23.06 ЮЗ 6-9
{9}
20 км 9/8 1500 м
[Sc Ac trans]
+12.8 +10.2 84 +10 +10 1008.2 1007.5 +11.7 +14.0
04 23.06 ЮЗ 5 20 км н/о +13.1 +10.1 82 +11 +11 1008.3 1007.6
05 23.06 ЮЗ 7-9
{9}
20 км ясно +13.0 +10.1 83 +10 +11 1008.9 1008.2 +11.7 +14.0
06 23.06 ЮЗ 7-9
{11}
20 км 8/3 1000 м
[Sc Ac trans Ci fib]
+13.7 +10.1 79 +11 +12 1009.2 1008.5 +11.7 +13.7
07 23.06 ЮЗ 5 20 км н/о +14.1 +9.2 72 +12 +12 1009.7 1009.0
08 23.06 ЮЗ 4 20 км н/о +14.7 +10.6 76 +14 +14 1010.3 1009.6
09 23.06 ЮЗ 5
{9}
20 км ясно +15.1 +10.5 74 +14 +21 1010.7 1010.0 +11.7 +15.2
10 23.06 ЮЗ 4 20 км н/о +15.6 +10.8 73 +15 +15 1010.8 1010.2
11 23.06 ЮЗ 4 20 км н/о +15.0 +10.2 73 +14 +14 1011.2 1010.5
12 23.06 З 4 20 км н/о +14.9 +10.3 74 +14 +14 1011.5 1010.8
13 23.06 З 3 20 км н/о +14.7 +10.0 73 +14 +14 1011.8 1011.1
14 23.06 СЗ 4 20 км н/о +14.9 +9.8 72 +14 +14 1012.0 1011.3
15 23.06 СЗ 3 20 км ясно +14.9 +9.4 70 +14 +19 1012.2 1011.6 +12.7 +15.8
16 23.06 СЗ 3 20 км н/о +14.0 +8.6 70 +13 +13 1012.1 1011.4

 

Местоположение метеостанции Vilsandi (Эстония): широта 58.38 долгота 21.82 высота над уровнем моря 6 м.

В архиве по умолчанию представлена погода в Vilsandi за последнюю неделю. Архивные данные за месяц целиком и за предыдущие месяцы, начиная с января 2011 года, Вы можете получить, выбрав интересующий диапазон дат из раскрывающегося списка и нажав кнопку "Ввод!".


*Определитесь, кто Вы:
робот инопланетянин человек

Внимание! Время в таблицах - всемирное. Для получения местного времени необходимо прибавить поправку, которая в Vilsandi равна 2 ч.

Смотрите также архив погоды в соседних городах и на ближайших метеорологических станциях:

Погода в S?rve (Эстония) (53 км)
Погода в Ristna (Эстония) (62 км)
Погода в Kolka (Латвия) (84 км)
Погода в Virtsu (Эстония) (101 км)
Погода в Ruhnu Saar (Эстония) (104 км)
Погода в Ventspils (Латвия) (110 км)
Погода в Kihnu (Эстония) (130 км)
Погода в Nigula (Эстония) (132 км)
Погода в M?rsrags (Латвия) (138 км)
Погода в Stende (Латвия) (140 км)

Пояснения к столбцам:

Ветер - указаны скорость ветра в м/с - средняя за 10 мин, порывы в срок и между сроками (в фигурных скобках) и направление, откуда дует ветер: С - северный, СВ - северо-восточный, В - восточный, ЮВ - юго-восточный, Ю - южный, ЮЗ - юго-западный, З - западный, СЗ - северо-западный.
Видимость - горизонтальная дальность видимости в метрах или километрах. При видимости от 1 до 10 км при отсутствии осадков обычно наблюдается дымка, при ухудшении видимости до 1 км и менее - туман. В сухую погоду видимость может ухудшаться дымом, пылью или мглою.
Явления - указаны атмосферные явления, наблюдавшиеся в срок или в последний час перед сроком; фигурными скобками обозначены явления, наблюдавшиеся между сроками (за 1-3 часа до срока); квадратными скобками обозначены град или гололедные отложения с указанием их диаметра в мм.
Облачность - указаны через наклонную черту общая и нижняя облачность в баллах и высота нижней границы облаков в метрах; квадратными скобками обозначены формы облаков: Ci - перистые, Cs - перисто-слоистые, Cc - перисто-кучевые, Ac - высококучевые, As - высокослоистые, Sc - слоисто-кучевые, Ns - слоисто-дождевые, Cu - кучевые, Cb - кучево-дождевые. Подробнее классификацию облаков см. в Атласе облаков (PDF).
T - Температура воздуха - температура, измеренная на высоте 2 м над землей.
Td - Температура точки росы - температура, при понижении до которой содержащийся в воздухе водяной пар достигнет насыщения.
f - Относительная влажность воздуха - влажноcть воздуха, измеренная на высоте 2 м над землей.
Te - Эффективная температура - температура, которую ощущает одетый по сезону человек в тени. Характеристика душности погоды. При расчете учитывается влияние влажности воздуха и скорости ветра на теплоощущения человека.
Tes - Эффективная температура на солнце - температура, которую ощущает человек, с поправкой на солнечный нагрев. Характеристика знойности погоды. Зависит от высоты солнца над горизонтом, облачности и скорости ветра. Ночью, в пасмурную погоду, а также при ветре 12 м/с и более поправка равна нулю.
P - Атмосферное давление - приведенное к уровню моря атмосферное давление.
Po - Атмосферное давление - измеренное на уровне метеостанции атмосферное давление.
Tmin - Минимальная температура - минимум температуры воздуха на высоте 2 м над землей.
Tmax - Максимальная температура - максимум температуры воздуха на высоте 2 м над землей.
R - Количество осадков - Количество выпавших осадков за период времени, мм. При наведении курсора мыши на число - период времени, за который выпало указанное количество осадков.
R24 - Количество осадков - Количество выпавших осадков за 24 часа, мм.
S - Снежный покров - Высота снежного покрова, см. При наведении курсора мыши на число - состояние снежного покрова и степень покрытия местности в баллах.